�N����,����,�~����,�C��,���x,�C��,����,���ϕ���,�ő�u�ԕ���,�ő厞����,���˗�,�I�_���x,�n�����x,�ő啗���N��,DTYPE
"23/05/28","00:10",0.0,18.8,87.9,1016.1,320.5,1.6,2.0,320.6,0.00,16.8,20.2,"00:07:12",1
"23/05/28","00:20",0.0,18.7,88.3,1016.1,301.7,1.1,1.8,323.8,0.00,16.8,20.0,"00:10:32",1
"23/05/28","00:30",0.0,18.7,88.5,1016.1,271.0,1.2,1.9,255.5,0.00,16.8,19.7,"00:27:04",1
"23/05/28","00:40",0.0,18.8,88.7,1016.1,274.3,1.5,2.1,263.7,0.00,16.9,19.7,"00:31:12",1
"23/05/28","00:50",0.0,18.8,88.7,1015.9,276.9,1.2,1.6,257.7,0.00,16.9,19.7,"00:42:56",1
"23/05/28","01:00",0.0,18.8,88.8,1015.9,286.0,1.3,1.9,305.6,0.00,17.0,19.7,"00:52:48",1
"23/05/28","01:10",0.0,18.6,88.9,1015.9,302.9,1.2,1.9,318.8,0.00,16.8,19.8,"01:04:56",1
"23/05/28","01:20",0.0,18.2,89.0,1015.9,309.3,1.1,2.1,316.3,0.00,16.4,19.8,"01:10:16",1
"23/05/28","01:30",0.0,18.2,89.5,1015.6,310.5,1.2,2.2,326.3,0.00,16.5,19.8,"01:28:24",1
"23/05/28","01:40",0.0,18.2,89.9,1015.9,314.8,2.1,2.9,332.5,0.00,16.6,19.7,"01:34:56",1
"23/05/28","01:50",0.0,18.4,90.2,1015.6,314.0,1.6,2.7,336.4,0.00,16.8,19.6,"01:42:40",1
"23/05/28","02:00",0.0,18.4,90.4,1015.9,296.1,1.1,1.6,315.9,0.00,16.8,19.7,"01:51:44",1
"23/05/28","02:10",0.0,18.3,90.6,1015.6,305.1,0.7,1.3,274.2,0.00,16.8,19.7,"02:01:44",1
"23/05/28","02:20",0.0,18.4,90.7,1015.9,284.0,1.0,1.3,279.5,0.00,16.9,19.5,"02:14:08",1
"23/05/28","02:30",0.0,18.5,90.8,1015.6,293.3,1.2,1.7,308.2,0.00,17.0,19.4,"02:27:36",1
"23/05/28","02:40",0.0,18.5,90.9,1015.9,287.1,1.3,1.8,254.7,0.00,17.0,19.5,"02:30:48",1
"23/05/28","02:50",0.0,18.6,90.9,1015.6,304.5,1.0,1.6,330.9,0.00,17.1,19.4,"02:41:20",1
"23/05/28","03:00",0.0,18.6,90.9,1015.6,298.1,1.2,2.0,315.3,0.00,17.1,19.6,"02:58:00",1
"23/05/28","03:10",0.0,18.6,90.8,1015.4,296.8,1.3,1.9,307.2,0.00,17.1,19.3,"03:00:16",1
"23/05/28","03:20",0.0,18.6,90.7,1015.4,311.3,1.2,1.7,303.0,0.00,17.1,19.5,"03:13:20",1
"23/05/28","03:30",0.0,18.6,90.6,1014.9,311.0,1.0,1.9,271.3,0.00,17.1,19.5,"03:21:04",1
"23/05/28","03:40",0.0,18.7,90.5,1015.2,288.4,1.2,1.6,295.2,0.00,17.2,19.4,"03:32:24",1
"23/05/28","03:50",0.0,18.8,90.2,1015.2,299.1,1.3,1.7,310.9,0.00,17.2,19.3,"03:46:24",1
"23/05/28","04:00",0.0,18.8,90.0,1015.4,296.9,1.1,2.0,327.4,0.00,17.2,19.1,"03:59:36",1
"23/05/28","04:10",0.0,18.7,89.8,1015.4,268.9,1.0,1.6,255.6,0.00,17.0,19.2,"04:08:00",1
"23/05/28","04:20",0.0,18.7,89.7,1015.4,303.2,0.8,1.8,323.8,0.00,17.0,19.2,"04:12:24",1
"23/05/28","04:30",0.0,18.7,89.6,1014.9,337.2,1.1,2.0,338.8,0.00,17.0,19.2,"04:29:04",1
"23/05/28","04:40",0.0,18.8,89.5,1015.2,322.2,1.1,1.6,310.2,0.00,17.1,19.3,"04:36:08",1
"23/05/28","04:50",0.0,18.7,89.6,1014.9,318.8,0.7,1.6,327.8,0.00,17.0,19.2,"04:40:48",1
"23/05/28","05:00",0.0,18.7,89.6,1015.2,291.3,0.5,1.0,277.4,0.00,17.0,19.1,"04:59:28",1
"23/05/28","05:10",0.0,18.6,89.6,1014.7,305.5,1.0,1.7,321.1,0.00,16.9,19.2,"05:09:12",1
"23/05/28","05:20",0.0,18.6,89.6,1015.2,319.4,1.2,2.0,324.2,0.00,16.9,19.2,"05:18:32",1
"23/05/28","05:30",0.0,18.6,89.5,1015.2,320.1,1.3,2.0,330.6,0.00,16.9,19.2,"05:21:20",1
"23/05/28","05:40",0.0,18.6,89.5,1014.9,326.2,1.1,1.6,321.7,0.00,16.9,19.1,"05:38:24",1
"23/05/28","05:50",0.0,18.6,89.4,1014.7,320.5,1.1,1.3,321.1,0.00,16.9,19.1,"05:45:28",1
"23/05/28","06:00",0.0,18.6,89.5,1014.7,257.9,0.5,0.8,269.3,0.00,16.9,19.2,"05:50:16",1
"23/05/28","06:10",0.0,18.7,89.7,1014.9,328.6,1.6,2.8,327.6,0.00,17.0,19.1,"06:08:56",1
"23/05/28","06:20",0.0,18.6,89.8,1015.2,345.9,1.2,2.4,348.1,0.00,16.9,19.1,"06:10:24",1
"23/05/28","06:30",0.0,18.9,89.8,1014.7,309.1,0.2,1.8,346.5,0.01,17.2,19.1,"06:20:40",1
"23/05/28","06:40",0.0,19.1,89.5,1014.9,332.8,0.7,1.9,338.9,0.03,17.4,19.2,"06:36:24",1
"23/05/28","06:50",0.0,19.5,88.9,1014.7,47.9,0.3,1.2,357.3,0.03,17.7,19.1,"06:42:08",1
"23/05/28","07:00",0.0,19.6,88.1,1015.2,325.0,0.7,1.4,321.9,0.03,17.6,19.1,"06:57:28",1
"23/05/28","07:10",0.0,19.9,87.3,1014.7,316.9,1.0,1.7,325.3,0.03,17.8,19.0,"07:06:36",1
"23/05/28","07:20",0.0,19.9,86.2,1014.7,271.6,1.3,1.9,338.0,0.04,17.6,19.2,"07:19:44",1
"23/05/28","07:30",0.0,20.0,85.4,1014.5,331.9,1.8,2.6,329.2,0.04,17.5,19.0,"07:24:00",1
"23/05/28","07:40",0.0,20.2,84.8,1014.7,318.0,1.2,2.6,335.8,0.04,17.6,19.2,"07:32:00",1
"23/05/28","07:50",0.0,20.2,84.1,1014.7,320.8,1.6,2.1,321.5,0.04,17.5,18.9,"07:42:24",1
"23/05/28","08:00",0.0,20.7,83.6,1014.7,308.4,1.0,1.8,340.9,0.07,17.9,19.1,"07:54:56",1
"23/05/28","08:10",0.0,20.7,82.6,1014.7,323.1,1.6,2.5,339.0,0.08,17.7,19.1,"08:08:48",1
"23/05/28","08:20",0.0,20.9,81.2,1014.5,331.9,1.7,2.7,335.1,0.10,17.6,18.9,"08:19:52",1
"23/05/28","08:30",0.0,21.3,80.1,1014.7,322.6,1.5,2.8,340.0,0.13,17.8,19.1,"08:20:40",1
"23/05/28","08:40",0.0,22.1,78.5,1014.7,302.3,1.0,2.1,53.0,0.20,18.2,19.2,"08:35:12",1
"23/05/28","08:50",0.0,22.5,75.4,1014.0,37.7,0.8,2.6,348.5,0.22,18.0,19.1,"08:43:28",1
"23/05/28","09:00",0.0,23.1,73.5,1013.5,4.6,1.1,2.4,343.5,0.24,18.1,19.1,"08:59:20",1
"23/05/28","09:10",0.0,23.0,71.4,1013.8,291.1,0.8,2.6,308.2,0.17,17.6,19.3,"09:07:44",1
"23/05/28","09:20",0.0,22.7,72.5,1013.8,316.7,1.2,2.5,339.4,0.14,17.5,19.3,"09:18:32",1
"23/05/28","09:30",0.0,22.6,72.5,1014.0,343.7,1.2,2.1,340.4,0.19,17.4,19.2,"09:21:44",1
"23/05/28","09:40",0.0,23.4,71.2,1013.8,48.6,0.6,1.3,109.8,0.30,17.9,19.5,"09:32:08",1
"23/05/28","09:50",0.0,24.3,67.8,1013.8,358.6,0.7,2.5,0.3,0.27,18.0,19.3,"09:49:12",1
"23/05/28","10:00",0.0,24.4,67.3,1013.3,67.7,0.6,1.7,12.5,0.21,18.0,19.2,"09:51:44",1
"23/05/28","10:10",0.0,23.7,67.4,1012.8,231.5,1.2,3.1,212.1,0.22,17.3,19.4,"10:07:28",1
"23/05/28","10:20",0.0,23.8,68.5,1013.0,229.1,1.3,5.2,233.7,0.24,17.7,19.5,"10:14:16",1
"23/05/28","10:30",0.0,24.4,68.3,1013.0,153.1,1.0,2.2,125.6,0.29,18.2,19.3,"10:20:08",1
"23/05/28","10:40",0.0,24.3,66.3,1012.8,216.0,1.0,2.6,191.3,0.29,17.7,19.4,"10:31:20",1
"23/05/28","10:50",0.0,24.7,65.0,1012.6,182.1,1.1,2.2,180.1,0.28,17.7,19.5,"10:49:12",1
"23/05/28","11:00",0.0,24.2,64.9,1012.3,176.2,1.0,2.4,206.6,0.12,17.2,19.4,"10:56:16",1
"23/05/28","11:10",0.0,24.4,64.4,1012.3,190.8,1.0,2.9,229.6,0.21,17.3,19.4,"11:09:12",1
"23/05/28","11:20",0.0,24.2,63.5,1012.6,232.2,2.0,3.7,239.9,0.18,16.9,19.7,"11:19:44",1
"23/05/28","11:30",0.0,24.6,63.7,1012.6,262.0,1.1,2.2,230.5,0.20,17.3,19.7,"11:20:16",1
"23/05/28","11:40",0.0,24.9,62.7,1012.6,204.9,1.7,3.4,205.0,0.33,17.3,19.5,"11:37:12",1
"23/05/28","11:50",0.0,25.8,59.1,1012.3,206.3,1.3,4.4,209.0,0.51,17.3,19.8,"11:45:36",1
"23/05/28","12:00",0.0,25.4,59.2,1012.1,193.6,1.2,2.9,233.9,0.25,16.9,19.8,"11:59:20",1
"23/05/28","12:10",0.0,25.3,59.8,1011.9,209.1,2.1,5.7,222.8,0.33,17.0,19.8,"12:09:52",1
"23/05/28","12:20",0.0,25.5,56.8,1011.9,210.9,2.1,4.8,198.6,0.34,16.3,19.8,"12:10:16",1
"23/05/28","12:30",0.0,25.3,58.8,1011.6,293.1,1.3,3.3,242.8,0.18,16.7,19.9,"12:20:32",1
"23/05/28","12:40",0.0,25.4,56.1,1011.4,244.3,2.1,5.6,223.4,0.32,16.1,19.7,"12:35:44",1
"23/05/28","12:50",0.0,25.6,58.6,1011.4,271.9,1.7,4.0,250.4,0.27,16.9,19.9,"12:44:32",1
"23/05/28","13:00",0.0,25.9,57.8,1011.4,314.3,1.6,3.2,292.5,0.42,17.0,20.2,"12:55:52",1
"23/05/28","13:10",0.0,26.4,54.5,1010.9,293.1,1.7,6.2,306.6,0.44,16.5,20.0,"13:09:44",1
"23/05/28","13:20",0.0,26.2,55.3,1010.9,319.3,2.2,4.3,334.0,0.49,16.6,20.0,"13:15:36",1
"23/05/28","13:30",0.0,27.1,56.4,1011.4,294.0,1.6,4.5,339.1,0.47,17.7,20.0,"13:20:40",1
"23/05/28","13:40",0.0,26.6,54.2,1010.9,275.7,1.7,4.5,237.2,0.35,16.6,20.2,"13:35:20",1
"23/05/28","13:50",0.0,26.8,54.2,1010.7,259.5,1.3,5.1,250.6,0.32,16.8,20.2,"13:48:40",1
"23/05/28","14:00",0.0,26.6,54.9,1010.4,237.5,2.3,5.8,235.9,0.36,16.8,20.4,"13:56:00",1
"23/05/28","14:10",0.0,26.9,52.5,1010.4,247.8,2.3,5.1,240.5,0.49,16.4,20.2,"14:01:52",1
"23/05/28","14:20",0.0,27.0,53.9,1010.2,265.0,1.7,4.2,229.4,0.42,16.9,20.2,"14:10:40",1
"23/05/28","14:30",0.0,27.4,51.5,1010.7,228.1,2.3,5.5,206.7,0.55,16.6,20.3,"14:29:36",1
"23/05/28","14:40",0.0,27.2,53.3,1010.7,218.3,2.2,4.5,230.6,0.44,16.9,20.4,"14:33:28",1
"23/05/28","14:50",0.0,26.3,54.6,1010.2,219.4,2.7,5.9,208.8,0.19,16.5,20.3,"14:41:12",1
"23/05/28","15:00",0.0,26.9,55.2,1009.7,241.4,2.6,5.2,235.1,0.44,17.2,20.5,"14:52:08",1
"23/05/28","15:10",0.0,26.5,54.0,1010.2,260.9,2.3,5.5,239.6,0.31,16.5,20.5,"15:06:16",1
"23/05/28","15:20",0.0,27.3,54.6,1010.0,252.3,2.2,5.6,249.4,0.41,17.4,20.6,"15:11:52",1
"23/05/28","15:30",0.0,26.9,54.1,1009.7,284.8,1.5,4.1,323.6,0.27,16.9,20.6,"15:24:40",1
"23/05/28","15:40",0.0,26.5,53.8,1009.3,257.5,2.0,5.4,239.1,0.22,16.4,20.7,"15:38:56",1
"23/05/28","15:50",0.0,26.2,54.8,1009.0,242.0,2.3,5.0,241.7,0.19,16.4,20.7,"15:46:16",1
"23/05/28","16:00",0.0,26.4,54.5,1008.8,255.4,2.2,5.6,238.8,0.25,16.5,20.7,"15:51:04",1
"23/05/28","16:10",0.0,26.8,54.3,1009.3,268.0,2.0,4.5,236.9,0.31,16.8,20.8,"16:00:08",1
"23/05/28","16:20",0.0,26.6,55.0,1009.3,275.7,1.5,3.7,358.8,0.19,16.9,20.7,"16:12:08",1
"23/05/28","16:30",0.0,26.9,54.5,1008.8,257.5,2.2,4.8,222.4,0.29,17.0,20.9,"16:29:44",1
"23/05/28","16:40",0.0,26.1,54.3,1009.3,230.1,2.6,6.0,219.7,0.16,16.2,20.8,"16:34:48",1
"23/05/28","16:50",0.0,25.8,56.1,1009.3,248.5,1.8,5.0,234.7,0.11,16.4,20.8,"16:46:16",1
"23/05/28","17:00",0.0,25.6,56.2,1009.5,246.4,2.0,4.1,240.0,0.13,16.3,20.7,"16:59:20",1
"23/05/28","17:10",0.0,25.8,56.4,1009.3,229.5,1.6,4.1,232.7,0.11,16.5,20.9,"17:00:48",1
"23/05/28","17:20",0.0,25.6,55.7,1009.3,231.4,2.0,3.3,223.6,0.08,16.1,20.7,"17:13:04",1
"23/05/28","17:30",0.0,25.3,57.3,1009.5,222.2,1.7,5.4,235.8,0.06,16.3,21.1,"17:25:12",1
"23/05/28","17:40",0.0,25.1,58.9,1009.5,235.5,1.3,2.6,236.4,0.04,16.5,20.9,"17:38:40",1
"23/05/28","17:50",0.0,25.0,60.4,1009.3,247.4,1.1,2.6,251.0,0.06,16.8,20.8,"17:47:52",1
"23/05/28","18:00",0.0,24.9,61.0,1009.5,233.3,1.6,2.9,215.2,0.05,16.9,20.8,"17:54:48",1
"23/05/28","18:10",0.0,24.6,62.0,1009.3,259.0,1.5,3.1,234.0,0.03,16.9,20.8,"18:06:48",1
"23/05/28","18:20",0.0,24.3,64.0,1009.5,285.9,1.2,2.2,293.3,0.02,17.1,20.7,"18:16:40",1
"23/05/28","18:30",0.0,24.0,66.2,1009.5,276.5,1.2,2.2,336.8,0.02,17.3,20.7,"18:20:02",1
"23/05/28","18:40",0.0,23.7,67.1,1010.0,306.6,1.2,2.1,331.6,0.00,17.3,20.7,"18:30:16",1
"23/05/28","18:50",0.0,23.7,67.8,1010.0,289.3,1.1,2.2,265.0,0.00,17.4,20.7,"18:45:28",1
"23/05/28","19:00",0.0,23.5,68.6,1010.2,294.0,1.1,2.5,256.0,0.00,17.4,20.8,"18:59:52",1
"23/05/28","19:10",0.0,23.4,69.2,1010.0,297.8,1.1,2.2,260.5,0.00,17.5,20.7,"19:09:20",1
"23/05/28","19:20",0.0,23.2,69.8,1010.4,282.0,1.1,2.2,243.5,0.00,17.4,20.7,"19:10:08",1
"23/05/28","19:30",0.0,23.1,70.2,1010.0,284.1,1.0,2.0,277.7,0.00,17.4,20.6,"19:20:24",1
"23/05/28","19:40",0.0,23.0,70.9,1010.4,253.3,0.8,1.9,226.6,0.00,17.5,20.8,"19:36:08",1
"23/05/28","19:50",0.0,22.9,71.5,1010.4,268.8,1.0,1.8,243.0,0.00,17.5,20.8,"19:45:12",1
"23/05/28","20:00",0.0,22.7,72.2,1010.2,311.9,1.1,1.9,322.2,0.00,17.5,20.6,"19:56:08",1
"23/05/28","20:10",0.0,22.5,73.0,1010.4,285.1,1.0,1.7,322.9,0.00,17.5,20.7,"20:02:48",1
"23/05/28","20:20",0.0,22.4,73.8,1010.2,292.6,1.1,1.6,317.6,0.00,17.5,20.7,"20:12:08",1
"23/05/28","20:30",0.0,22.3,74.6,1010.4,294.0,1.2,2.0,330.9,0.00,17.6,20.7,"20:29:20",1
"23/05/28","20:40",0.0,22.1,75.5,1010.2,328.1,1.8,2.9,320.0,0.00,17.6,20.6,"20:31:52",1
"23/05/28","20:50",0.0,21.9,76.1,1010.4,313.0,1.5,2.6,334.7,0.00,17.5,20.5,"20:41:36",1
"23/05/28","21:00",0.0,21.9,76.4,1010.7,318.6,1.3,2.0,261.6,0.00,17.6,20.6,"20:50:56",1
"23/05/28","21:10",0.0,21.8,76.6,1011.2,316.7,1.0,1.8,321.4,0.00,17.5,20.5,"21:01:12",1
"23/05/28","21:20",0.0,21.8,76.9,1010.9,296.7,0.7,1.2,337.1,0.00,17.6,20.5,"21:11:28",1
"23/05/28","21:30",0.0,21.7,77.3,1010.7,310.2,1.1,2.4,330.0,0.00,17.6,20.5,"21:26:24",1
"23/05/28","21:40",0.0,21.6,77.5,1010.7,316.1,0.5,1.2,320.5,0.00,17.5,20.4,"21:30:16",1
"23/05/28","21:50",0.0,21.7,77.9,1011.2,337.2,0.7,1.4,358.0,0.00,17.7,20.4,"21:47:52",1
"23/05/28","22:00",0.0,21.6,78.6,1010.9,321.2,1.6,2.6,264.7,0.00,17.8,20.3,"21:59:28",1
"23/05/28","22:10",0.0,21.8,78.3,1011.2,289.4,1.5,2.2,324.8,0.00,17.9,20.4,"22:05:04",1
"23/05/28","22:20",0.0,21.9,78.2,1011.2,332.1,1.2,2.2,330.9,0.00,18.0,20.2,"22:14:48",1
"23/05/28","22:30",0.0,21.7,78.3,1011.2,349.8,1.1,1.7,347.7,0.00,17.8,20.3,"22:26:40",1
"23/05/28","22:40",0.0,21.5,78.9,1010.9,327.6,0.8,1.3,319.8,0.00,17.7,20.4,"22:32:56",1
"23/05/28","22:50",0.0,21.5,79.4,1011.4,311.9,1.2,1.9,324.3,0.00,17.8,20.3,"22:46:56",1
"23/05/28","23:00",0.0,21.4,79.8,1011.4,326.4,1.5,2.1,325.7,0.00,17.8,20.2,"22:58:48",1
"23/05/28","23:10",0.0,21.3,80.1,1010.7,328.7,1.6,2.7,319.7,0.00,17.8,20.4,"23:04:08",1
"23/05/28","23:20",0.0,21.3,80.9,1010.9,340.5,1.0,1.6,310.4,0.00,17.9,20.1,"23:10:32",1
"23/05/28","23:30",0.0,21.1,82.3,1011.2,332.7,1.5,2.2,336.0,0.00,18.0,20.2,"23:26:16",1
"23/05/28","23:40",0.0,20.7,83.8,1010.9,320.2,1.2,1.9,336.9,0.00,17.9,20.2,"23:39:44",1
"23/05/28","23:50",0.0,20.7,85.0,1010.7,334.7,1.5,2.6,337.2,0.00,18.1,20.2,"23:48:56",1
"23/05/28","24:00",0.0,20.5,85.8,1010.9,325.3,1.5,3.3,337.0,0.00,18.1,20.1,"23:51:44",1
